Pensacola Naval Air Station,Forrest Sherman field Pensacola US
ICAO: KNPA
IATA: NPA
Category: Medium
Scheduled Services: No

Elevation: 28 ft
TransAlt. 18000 ft.

Airport Communications:
APP:120.05
ATIS:26.76
SHERMAN CLNC DEL:134.1
DEP:120.65
SHERMAN GND:121.7
SHERMAN BASE OPS:31.21
PMSV METRO:35.96
SHERMAN TWR:120.7

KNPA Zoom In..

If you have problems with the map follow the link
https://www.worldairports.se/pages/airport.php?
ICAO=KNPA

Runways:

(A) RW 01 length 7137 ft width 200 ft
---- / hdg 7

(B) RW 07L length 8002 ft width 200 ft
ILS 109.30 / hdg 70

(C) RW 07R length 8001 ft width 200 ft
---- / hdg 69

(D) RW 19 length 7137 ft width 200 ft
---- / hdg 187

(E) RW 25L length 8001 ft width 200 ft
---- / hdg 249

(F) RW 25R length 8002 ft width 200 ft
---- / hdg 250

Location; KNPA
Day. 26 / Time. 00.56 Zulu
* Altimeter: 30.15
* Temperature: 11° c. 51.8°f.
* Wind from: 270° Speed 04 kn.
Dewpoint: 07° c.
Visibility: 10 Statute Miles.
Clouds: Clear (automated report).

KNPA 260056Z AUTO 27004KT 10SM CLR 11/07 A3015 RMK AO2 SLP213 T01060072


Wind From 270°
Speed 04 kn.

 
 
jpsmedia worldairports.se 2020   terms of use